Location: Bremen
(53.0793°N, 8.8017°E)
Time: 12:12:44
(UTC+02:00)

Altair - Pass Details

Date: 15 April 2024
Orbit: 1501 x 1682 km, 47.2° (Epoch: 17 May)

Event Time Altitude Azimuth Distance (km) Brightness Sun altitude
Rises 23:36:01 0° 252° (WSW) 4,876 10.3 -22.6°
Reaches altitude 10° 23:39:14 10° 249° (WSW) 3,869 9.7 -22.9°
Maximum altitude 23:48:51 61° 172° (S) 1,768 7.5 -23.5°
Drops below altitude 10° 23:58:06 10° 96° (E) 3,731 9.2 -24.1°
Sets 00:01:08 0° 93° (E) 4,693 9.8 -24.3°
